KAZSAT 3

导读

KAZSAT-3(哈萨克斯坦三号通信卫星)是哈萨克斯坦自主拥有的第三颗通信广播卫星,由俄意两国合作建造,于2014年4月28日从拜科努尔航天发射场,用质子M运载火箭成功发射升空,卫星定位于东经58.5°地球同步轨道,设计服役寿命为15年,服务覆盖哈萨克斯坦全境及中亚、俄罗斯中部,提供广播电视传输与通信数据服务,支撑哈萨克斯坦15家运营商运营,建有超1.3万个地面接收站,对哈航天通信发展意义重大。

Basic Information
目录编号:
39728
目录名称:
KAZSAT 3
国际标识:
2014-023B
轨道中心:
EARTH
卫星名称:
KAZSAT 3
卫星全名:
--
卫星状态:
在轨 (已飞行4437 天)
发射日期:
2014-04-28 UTC
国别 :
(KZ)
星等 :
--
Orbit Information
数据来源 国际轨道数据 AOE轨道数据
星历时间 2026-06-20T07:44:46+0800
1天前
查看轨道信息
2026-06-21T09:00:00+0800
9小时前
查看轨道信息
半长轴 42164.112km 42164.42km
偏心率 0.0000335 0.0000346
轨道倾角 0.015° 0.018°
近地点辐角 33.050° 77.977°
升交点赤经 31.899° 40.798°
平近点角 257.953° 223.979°
近地点 35784.562km 35784.824km
远地点 35787.388km 35787.742km
周期 1436.065分钟 1436.081分钟
每日圈数 1.00274 1.002729
Detailed Information
使用方式:
暂无
2D Orbit Map
3D Orbit Map
Orbit Altitude Analysis Chart
Orbit Inclination Analysis Chart
Orbit Comprehensive Analysis Chart
View Comprehensive Chart